RH
25 27 31 19 20 15 8 4 4 6 6 8 9 11 12 18 20 30 29 27 36 28 61 62 57 94 97 96 96 97 80 77 89 96 97 95 93 67 52 49 54 58 55 54 55 53 49 55 57
26 31 29 18 19 12 5 4 6 8 8 8 10 13 18 22 28 36 47 51 60 54 58 84 89 76 94 93 93 94 74 74 94 98 96 95 87 56 50 49 62 53 57 59 55 51 53 59 57
32 35 27 21 17 6 4 6 8 9 11 12 19 19 16 26 27 30 32 59 50 54 75 75 78 78 75 82 67 76 65 65 84 96 95 90 66 50 51 50 65 65 67 64 66 53 52 50 54
37 35 24 25 14 5 5 8 9 11 9 14 20 24 20 19 25 20 26 49 41 71 86 69 90 93 77 57 54 45 54 56 73 94 97 83 58 48 44 62 62 69 75 70 64 61 59 68 72
40 28 27 24 8 4 8 10 9 7 12 12 12 13 20 33 34 32 45 69 69 65 75 74 72 88 68 53 41 41 48 51 54 86 96 71 48 40 58 59 62 79 74 72 72 65 66 77 78
35 26 30 23 5 6 9 10 8 10 10 12 28 47 53 53 62 66 62 59 64 80 65 54 63 56 52 42 36 61 64 67 67 95 91 58 53 58 73 68 72 75 81 86 78 72 70 68 82
33 26 35 19 5 8 9 8 8 10 16 35 41 40 47 51 51 52 56 55 63 82 79 93 79 83 74 66 60 40 57 87 95 96 96 83 58 71 79 75 71 82 90 83 82 80 90 96 96
35 27 38 16 5 9 8 7 8 18 39 41 36 36 43 45 54 67 78 59 79 90 83 99 97 94 99 83 73 66 68 81 97 96 97 94 74 65 86 79 82 91 76 82 87 84 89 98 98
36 34 38 15 5 9 6 6 8 15 46 40 25 33 42 41 46 74 66 61 86 97 94 93 97 99 100 98 98 86 87 96 96 97 96 93 75 78 95 76 92 86 84 92 88 79 96 96 92
38 36 38 15 4 10 7 6 10 17 44 43 32 31 37 37 42 52 74 76 90 81 95 96 88 90 90 95 96 96 97 99 97 97 98 99 92 86 94 79 95 93 94 97 98 89 99 90 92
40 38 40 19 5 11 9 8 10 16 36 46 43 30 31 34 37 35 54 71 78 78 95 90 95 97 96 95 97 95 96 96 97 95 88 97 90 98 91 91 94 95 89 86 84 92 98 88 87
40 39 41 27 6 10 10 11 13 14 29 49 36 27 26 34 32 33 44 49 65 69 90 97 95 97 95 90 95 95 97 97 97 94 99 96 96 99 89 95 91 95 94 93 94 89 94 91 92
40 38 40 32 11 7 9 11 18 21 21 40 43 26 17 24 37 38 41 49 59 56 81 91 94 95 93 95 95 98 96 97 97 87 87 96 97 100 92 86 87 100 100 98 94 93 93 95 94
60 45 40 36 18 7 8 12 18 16 23 34 42 28 16 19 27 35 48 48 47 52 72 87 94 96 97 95 96 96 97 96 95 97 96 97 96 99 97 87 100 100 97 95 84 96 99 99 100
61 47 43 38 27 13 8 13 16 21 26 32 40 31 23 20 25 41 55 61 59 56 53 76 94 97 97 97 97 97 96 93 97 96 97 95 90 98 92 85 100 98 98 96 94 95 95 95 94
62 45 42 38 33 23 11 16 15 18 31 30 29 30 31 17 23 36 40 44 46 55 50 59 80 95 97 96 97 92 97 97 97 97 96 95 95 96 91 86 76 88 96 92 91 90 93 93 94
74 65 45 40 37 33 14 20 20 32 40 40 36 39 33 26 22 28 34 36 40 47 51 44 57 90 97 96 96 96 97 97 97 97 94 100 93 97 95 92 80 85 88 91 94 97 97 99 98
90 77 44 43 40 38 23 16 21 29 52 49 27 35 34 30 20 22 31 35 36 39 56 60 97 81 94 95 97 97 96 95 96 97 97 97 97 96 90 78 87 97 94 92 99 97 95 98 98
73 65 51 48 45 43 37 24 27 28 55 61 34 31 36 26 24 18 17 21 26 35 40 84 97 89 79 94 95 94 76 74 67 83 96 96 96 96 92 94 100 94 95 99 97 100 100 98 99
71 66 62 59 50 46 39 34 33 20 53 47 41 31 42 37 25 24 16 12 11 20 31 33 42 72 88 80 97 96 98 97 81 88 92 91 98 97 100 97 97 97 95 94 100 100 96 93 88
68 64 72 68 53 46 42 41 38 33 35 41 35 35 48 48 26 23 24 10 8 10 15 18 36 21 76 80 87 96 95 97 93 91 97 98 96 99 98 97 97 95 86 92 95 93 96 83 84
49 70 83 70 70 54 39 25 40 41 34 43 40 38 55 49 32 25 25 11 8 9 11 12 16 37 14 38 53 47 54 83 97 95 76 73 75 86 98 97 80 70 68 72 85 80 87 88 82
81 88 91 66 66 53 49 40 35 44 40 36 47 41 53 64 72 35 21 15 10 9 8 9 8 9 17 16 11 12 11 16 23 33 34 30 44 50 57 63 61 60 60 78 72 61 45 57 39
90 77 74 64 63 37 46 56 34 44 43 32 24 34 61 53 63 54 31 15 14 11 10 9 9 8 8 8 8 8 8 9 9 11 12 11 19 34 48 58 62 71 66 59 59 63 46 84 73
87 81 74 74 60 35 55 66 50 49 51 33 25 26 49 49 46 60 55 36 23 25 32 35 30 20 17 20 23 17 14 14 14 15 20 23 25 27 29 31 33 38 74 80 83 73 71 64 70
97 99 94 92 73 61 64 49 49 52 55 44 23 30 43 38 47 59 58 46 33 30 32 34 27 27 29 32 32 33 31 24 22 23 21 22 25 31 35 37 34 32 34 46 44 50 62 66 65
95 93 100 93 86 78 60 48 53 53 54 54 28 20 36 42 46 41 42 38 36 33 24 25 30 30 30 35 25 33 42 41 38 35 33 32 32 32 39 43 40 39 32 38 58 73 74 70 84
92 100 96 86 79 72 60 59 65 58 68 70 47 23 25 50 50 57 46 40 45 54 36 28 36 30 39 46 44 34 30 39 45 44 46 53 58 73 85 77 51 33 30 33 47 60 75 93 95
94 93 88 84 80 72 68 58 55 64 64 66 56 23 30 55 70 74 54 54 41 41 35 34 32 26 40 57 54 52 62 71 63 61 87 92 97 98 98 99 100 89 52 49 56 74 83 94 99
79 83 81 74 71 62 51 41 61 56 62 67 66 44 26 45 58 79 80 52 48 41 43 44 36 28 34 36 33 50 56 60 80 96 93 82 72 83 98 96 88 97 88 98 99 100 97 97 100
Wind_Speed
26 26 23 22 21 20 23 20 21 25 25 24 23 23 20 19 20 18 17 21 23 29 31 39 44 29 34 27 17 25 30 27 25 35 30 31 25 24 19 11 8 6 5 9 10 11 12 14 15
23 24 21 22 20 21 20 19 22 24 25 26 24 22 19 18 19 21 22 23 19 24 31 31 38 36 36 30 19 21 21 29 22 36 36 29 26 21 16 13 9 8 8 8 8 11 13 15 16
21 23 20 20 18 21 18 18 21 22 23 22 23 25 21 20 22 25 29 28 26 27 29 31 28 35 36 35 22 22 21 23 22 38 31 28 27 22 17 14 12 10 7 7 10 11 14 16 16
22 21 19 21 20 18 17 18 18 20 19 20 21 24 22 24 27 27 26 27 27 25 29 28 27 27 21 18 20 23 24 25 27 32 34 33 28 21 21 17 11 10 9 9 10 11 14 18 18
18 19 20 18 20 15 15 15 18 17 15 18 21 18 20 24 22 24 28 28 23 25 28 23 25 24 15 16 17 27 32 27 30 33 39 36 29 25 20 17 14 11 10 10 12 12 14 15 16
18 18 19 20 19 14 14 13 13 13 16 16 18 22 25 28 28 27 29 26 28 30 28 28 27 26 27 24 22 22 21 24 29 31 39 37 30 27 22 19 13 12 14 13 13 16 18 18 20
18 18 21 20 17 13 13 9 9 11 14 17 15 18 21 22 26 26 26 27 27 29 28 29 33 31 25 27 25 29 31 20 23 36 41 37 31 26 24 18 14 15 15 14 15 15 15 15 18
17 17 20 18 16 12 9 7 8 10 16 15 19 22 21 21 22 22 22 21 21 19 26 26 36 18 18 25 25 28 25 28 27 31 46 38 33 25 24 18 17 15 15 16 18 17 19 20 18
16 17 19 18 13 12 10 8 8 13 13 15 17 21 19 20 21 17 11 14 16 20 24 29 22 13 17 21 22 28 26 23 27 35 44 38 27 27 24 18 17 16 16 17 19 21 17 18 17
16 16 18 18 14 11 12 9 8 14 14 15 17 19 20 20 20 16 11 9 6 9 15 24 24 21 25 26 30 30 25 26 31 38 41 37 29 30 25 19 17 17 17 22 21 20 19 22 20
17 18 17 19 14 13 13 10 10 15 16 15 15 17 19 19 15 11 9 10 7 7 11 16 18 18 20 25 28 27 27 35 39 34 44 40 30 31 26 20 22 21 21 19 25 22 23 25 21
17 20 15 19 14 16 13 13 12 16 15 14 12 16 17 18 11 9 6 6 6 7 6 9 7 7 15 24 26 22 19 37 40 33 38 38 29 37 27 25 23 22 23 23 25 28 28 24 20
16 22 16 18 16 15 17 13 13 17 16 18 12 14 15 14 11 9 7 8 8 8 7 7 7 7 13 17 29 24 22 37 37 33 34 43 37 38 31 25 25 20 19 21 26 28 28 24 22
17 21 18 18 17 14 19 15 15 20 17 19 12 12 15 13 10 9 9 9 11 9 8 10 6 10 1 18 20 25 34 27 35 36 32 42 33 34 34 26 26 22 20 23 25 26 27 23 24
17 19 17 19 17 15 16 17 19 18 18 16 16 10 13 13 12 9 8 10 12 11 13 13 7 15 14 13 23 26 28 31 36 33 30 24 29 34 28 27 25 23 22 24 25 27 27 24 26
20 16 17 20 17 16 12 16 16 17 16 18 14 7 10 11 10 8 7 9 10 9 13 14 13 11 8 10 15 24 25 25 33 34 24 26 28 31 32 28 23 21 24 29 28 26 29 29 29
21 17 20 18 17 17 11 15 15 13 13 20 12 8 9 11 10 8 8 9 14 10 10 13 12 7 14 8 9 11 19 30 28 33 28 26 28 31 31 28 22 23 28 30 29 28 30 30 32
22 25 19 17 17 18 13 13 14 12 13 15 17 13 11 13 10 8 7 7 11 13 6 17 20 12 9 9 13 17 14 17 29 29 28 27 27 27 28 28 28 29 28 31 30 30 30 32 32
27 23 19 18 20 20 17 12 16 10 13 19 19 13 11 10 12 10 7 7 5 7 8 9 18 16 20 11 11 10 13 15 20 27 26 25 23 24 27 29 29 28 30 29 28 28 31 33 31
25 23 19 23 22 24 18 16 15 12 11 17 21 16 10 11 10 9 10 8 6 3 4 1 4 16 21 17 20 18 16 18 19 27 23 26 27 27 28 30 28 27 28 27 27 27 29 33 31
27 23 24 24 26 26 23 16 11 14 11 14 15 13 9 10 9 9 10 8 7 4 1 4 2 1 9 18 23 23 23 24 24 28 26 27 32 28 30 32 26 26 24 24 25 26 29 29 29
28 24 26 26 30 27 27 19 9 14 15 12 15 14 11 8 8 9 8 6 5 3 1 2 2 2 2 6 8 9 9 11 20 23 20 21 24 24 25 21 20 23 20 21 24 27 29 27 28
26 28 28 30 32 28 27 26 10 9 12 12 20 15 16 11 7 10 8 5 3 3 3 2 2 3 4 6 7 8 9 11 14 14 13 15 14 14 15 17 19 19 19 22 25 28 29 29 31
32 33 34 35 32 30 25 29 12 11 8 13 16 20 20 20 11 10 10 8 6 7 7 8 7 6 7 8 10 9 9 11 13 16 17 17 16 17 19 21 21 21 23 25 28 31 31 28 32
37 34 36 39 35 28 29 32 18 15 11 12 13 20 21 21 12 9 11 13 10 9 8 8 8 8 7 8 9 9 10 11 11 11 13 13 15 17 20 20 22 25 28 31 31 32 31 31 33
35 35 36 37 33 32 31 36 23 17 12 12 11 18 22 20 14 10 10 15 16 13 10 10 10 11 12 13 12 12 12 12 12 10 11 13 14 16 19 20 23 25 28 29 30 28 27 28 32
38 40 32 36 37 38 34 34 26 20 16 13 14 17 24 20 18 17 12 15 13 15 15 15 14 14 15 14 15 17 17 16 16 13 14 16 18 20 22 24 25 26 29 29 30 31 33 34 36
39 35 37 39 39 37 37 34 27 22 19 16 16 15 23 23 20 18 17 17 17 18 20 21 20 17 16 14 14 14 16 17 17 18 19 20 21 24 26 29 31 32 31 32 35 38 39 39 44
37 38 39 38 39 40 39 37 32 23 21 16 14 15 22 23 20 20 20 22 17 16 18 20 21 18 18 19 19 20 20 20 21 22 24 25 28 32 33 36 36 37 37 37 38 41 45 46 49
40 41 41 42 41 42 42 41 36 26 23 22 14 19 23 24 24 20 25 23 18 16 20 25 22 20 19 19 20 22 23 26 25 26 28 28 26 26 27 26 32 39 46 36 41 38 33 39 41
Wind_Direction
307 310 309 298 299 313 314 313 310 305 304 309 308 302 292 286 290 288 286 282 273 254 254 245 239 241 247 256 239 239 232 229 236 198 197 188 196 193 193 206 217 246 283 290 303 298 293 289 287
307 308 304 298 306 312 314 311 306 306 308 311 307 295 285 276 274 276 277 269 259 259 254 255 250 246 255 263 260 245 248 240 234 192 199 212 194 193 190 200 215 241 257 276 284 285 288 288 287
312 304 298 300 309 319 314 309 310 312 313 309 309 302 286 276 268 266 268 272 266 259 253 251 247 244 248 255 260 251 259 241 239 209 203 201 200 194 194 204 206 222 239 261 273 282 291 292 290
310 294 295 303 317 316 311 310 310 306 313 312 307 300 293 279 268 267 269 272 264 256 252 251 240 240 241 250 254 256 257 256 242 229 206 202 198 190 198 206 209 231 230 250 270 281 281 288 287
300 286 297 303 319 310 310 303 305 315 317 308 302 297 288 282 282 275 274 278 272 254 253 251 251 245 236 234 245 243 246 247 247 233 196 198 191 194 200 211 214 227 239 253 266 269 272 281 290
291 284 288 304 317 311 297 300 312 312 305 299 298 295 288 289 288 286 276 274 271 257 251 251 247 236 246 251 237 239 230 232 230 222 190 198 189 194 206 208 210 226 239 255 273 273 272 285 283
283 282 288 310 315 301 290 295 323 314 296 296 307 311 300 298 294 286 277 270 270 265 251 240 234 229 234 246 245 238 253 244 232 202 194 192 193 199 205 204 214 226 244 264 272 273 281 286 296
279 279 294 310 306 283 276 290 301 304 304 305 329 324 318 311 297 292 283 270 265 255 232 244 232 209 221 234 237 239 247 247 219 214 214 205 199 205 205 204 215 231 254 262 271 269 272 276 288
272 280 293 304 302 276 271 274 293 290 304 310 328 326 324 320 313 321 290 277 271 248 239 236 240 240 224 234 229 244 240 210 208 212 193 204 211 210 206 212 215 239 249 267 271 263 263 281 275
271 275 286 301 300 264 270 272 283 285 297 309 325 328 326 326 322 333 311 282 236 249 229 219 224 234 229 233 229 222 215 206 194 200 198 216 215 205 209 215 223 236 248 252 252 254 260 271 262
265 268 281 294 299 263 268 272 279 283 301 310 320 329 321 327 320 325 306 289 293 252 206 209 243 231 223 227 209 203 195 185 199 196 206 206 211 214 212 216 222 224 242 257 254 252 259 261 261
258 260 271 289 300 265 269 263 267 282 294 308 330 333 323 327 320 323 311 286 270 298 264 240 217 209 236 209 208 211 198 186 195 206 210 215 214 217 214 216 226 229 242 252 256 252 258 251 244
251 258 270 285 297 274 277 266 268 279 290 293 317 326 331 322 322 325 301 282 274 262 268 250 219 225 227 200 204 212 193 190 209 222 210 213 218 221 218 222 221 224 237 248 250 250 246 244 245
255 255 269 283 297 297 284 274 271 278 286 287 310 324 337 341 332 320 312 299 285 270 253 246 238 142 100 187 199 212 242 218 218 217 216 209 212 222 206 214 224 230 237 242 251 245 242 241 240
257 256 263 282 294 304 302 272 279 283 289 286 293 317 329 345 351 345 316 301 285 268 242 237 226 146 143 138 169 188 211 204 206 205 199 205 206 199 205 220 221 230 239 244 250 252 249 244 239
250 249 257 268 286 305 296 273 277 287 286 296 282 307 322 334 354 3 10 348 338 290 230 228 222 140 152 127 149 166 181 195 197 195 195 197 206 217 215 220 227 233 243 248 249 252 250 249 239
252 256 248 260 278 291 293 273 269 272 284 292 277 289 318 313 329 344 355 5 350 335 213 213 216 277 181 215 205 176 172 175 184 195 203 216 222 222 224 229 241 246 249 254 256 250 249 242 234
254 249 244 261 274 280 286 267 287 282 277 281 281 288 299 301 308 313 335 354 358 4 232 223 214 235 241 188 191 200 192 208 198 210 215 223 216 221 230 236 243 246 251 257 254 254 245 228 222
249 250 251 259 272 275 280 280 288 294 265 268 267 269 286 296 293 300 306 317 356 359 14 272 249 263 252 209 223 216 202 230 230 228 230 235 235 242 237 240 244 250 255 252 252 244 225 219 212
248 254 251 260 268 272 270 280 294 289 276 273 267 267 265 286 281 287 296 295 304 328 331 28 273 237 228 237 212 239 239 229 231 219 231 239 244 242 245 247 250 248 247 246 233 221 223 218 218
240 249 250 255 262 266 272 278 294 298 294 265 264 266 256 276 276 279 288 300 296 286 285 288 275 91 185 219 238 238 249 250 238 229 243 249 244 244 249 254 248 245 236 229 221 213 217 220 218
238 241 248 251 261 264 271 280 297 297 300 254 261 267 246 264 281 281 284 298 311 304 259 229 258 211 161 182 190 208 209 211 217 228 233 234 236 233 234 241 238 228 225 219 216 219 225 226 232
234 236 245 247 257 254 265 277 287 291 294 266 256 251 242 239 279 288 273 265 282 273 266 228 237 241 196 200 220 224 210 192 197 208 215 213 208 202 204 215 221 225 231 230 237 242 240 239 241
231 234 241 246 251 258 272 277 262 295 266 278 259 244 241 250 241 262 272 254 244 252 262 268 256 235 237 219 202 209 210 208 206 204 211 212 210 212 213 219 225 236 237 242 247 252 253 253 252
231 233 241 249 252 263 266 271 273 282 288 268 279 234 237 246 243 246 271 269 245 249 264 258 266 263 246 239 231 209 212 220 221 221 222 225 226 226 226 232 236 236 234 238 243 252 256 260 260
234 237 241 253 258 260 255 265 269 269 283 282 279 243 235 247 232 226 251 261 263 253 247 249 263 272 269 261 244 246 240 226 224 225 226 230 238 244 246 244 245 246 247 246 250 253 260 261 261
231 234 238 244 250 257 256 259 267 271 278 275 263 258 236 233 230 238 242 244 254 263 250 247 261 273 272 282 268 251 246 246 242 241 242 249 252 258 256 257 259 256 255 250 250 256 265 266 265
232 231 234 239 247 253 259 261 265 268 276 280 258 258 233 227 225 236 235 231 251 269 270 258 265 264 260 265 276 270 262 256 255 253 256 261 266 267 272 270 264 261 257 258 263 261 264 265 266
235 236 239 242 246 251 257 262 265 260 269 276 252 241 219 222 229 237 241 233 240 254 255 266 269 265 250 257 266 272 275 272 268 271 274 272 274 279 285 269 273 268 257 256 257 259 264 266 270
232 234 239 242 244 249 254 260 262 260 259 256 237 230 228 225 235 240 238 235 235 239 257 263 260 258 257 265 268 265 268 273 280 280 281 282 283 284 287 270 277 272 254 264 264 268 271 270 269